When you browse on this site, cookies collect data to enhance your experience and personalize the content and advertising you see.
Visit our Privacy Policy to learn more. By continuing to use the site, you agree to this use of cookies and data.
  • In Romania
  • List of Countries
  • For 7 days
  • Water Temperature
  • Satellite Maps
  • Weather Map
  • Weather Widgets
  • user-avatar
    Login

    Hourly Weather Akaba

    Today, 18 January, Friday

    Time Temperature Precipitation Wind Pressure Humidity
    00:00 +10°C° 0 mm 2 mps 755 mmHg 75%
    01:00 +10°C° 0 mm 2 mps 755 mmHg 77%
    02:00 +9°C° 0 mm 2 mps 755 mmHg 80%
    03:00 +9°C° 0 mm 2 mps 755 mmHg 81%
    04:00 +9°C° 0 mm 2 mps 755 mmHg 82%
    05:00 +9°C° 0 mm 2 mps 755 mmHg 84%
    06:00 +9°C° 0 mm 2 mps 755 mmHg 80%
    07:00 +10°C° 0 mm 2 mps 755 mmHg 76%
    08:00 +12°C° 0 mm 2 mps 755 mmHg 69%
    09:00 +13°C° 0 mm 2 mps 755 mmHg 62%
    10:00 +15°C° 0 mm 2 mps 755 mmHg 55%
    11:00 +16°C° 0 mm 2 mps 755 mmHg 48%
    12:00 +17°C° 0 mm 2 mps 754 mmHg 44%
    13:00 +18°C° 0 mm 3 mps 754 mmHg 41%
    14:00 +19°C° 0 mm 3 mps 753 mmHg 37%
    15:00 +18°C° 0 mm 3 mps 753 mmHg 39%
    16:00 +18°C° 0 mm 3 mps 753 mmHg 41%
    17:00 +17°C° 0 mm 3 mps 753 mmHg 42%
    18:00 +16°C° 0 mm 3 mps 754 mmHg 45%
    19:00 +14°C° 0 mm 3 mps 754 mmHg 48%
    20:00 +14°C° 0 mm 3 mps 754 mmHg 51%
    21:00 +14°C° 0 mm 2 mps 754 mmHg 52%
    22:00 +14°C° 0 mm 2 mps 754 mmHg 54%
    23:00 +13°C° 0 mm 2 mps 754 mmHg 55%

    Tomorrow, 19 January, Saturday

    Time Temperature Precipitation Wind Pressure Humidity
    00:00 +13°C° 0 mm 2 mps 754 mmHg 55%
    01:00 +13°C° 0 mm 2 mps 754 mmHg 56%
    02:00 +12°C° 0 mm 2 mps 754 mmHg 56%
    03:00 +12°C° 0 mm 2 mps 754 mmHg 57%
    04:00 +12°C° 0 mm 2 mps 754 mmHg 57%
    05:00 +12°C° 0 mm 2 mps 754 mmHg 57%
    06:00 +12°C° 0 mm 2 mps 754 mmHg 56%
    07:00 +13°C° 0 mm 2 mps 754 mmHg 54%
    08:00 +13°C° 0 mm 2 mps 754 mmHg 52%
    09:00 +15°C° 0 mm 2 mps 754 mmHg 46%
    10:00 +16°C° 0 mm 2 mps 754 mmHg 40%
    11:00 +18°C° 0 mm 2 mps 754 mmHg 35%
    12:00 +19°C° 0 mm 2 mps 753 mmHg 31%
    13:00 +20°C° 0 mm 2 mps 752 mmHg 28%
    14:00 +21°C° 0 mm 2 mps 752 mmHg 24%
    15:00 +20°C° 0 mm 2 mps 752 mmHg 25%
    16:00 +19°C° 0 mm 2 mps 752 mmHg 25%
    17:00 +19°C° 0 mm 2 mps 752 mmHg 26%
    18:00 +18°C° 0 mm 2 mps 752 mmHg 28%
    19:00 +17°C° 0 mm 2 mps 753 mmHg 30%
    20:00 +16°C° 0 mm 2 mps 753 mmHg 32%
    21:00 +16°C° 0 mm 2 mps 753 mmHg 35%
    22:00 +15°C° 0 mm 2 mps 753 mmHg 37%
    23:00 +15°C° 0 mm 1 mps 753 mmHg 39%

    Day after tomorrow, 20 January, Sunday

    Time Temperature Precipitation Wind Pressure Humidity
    00:00 +14°C° 0 mm 1 mps 753 mmHg 40%
    01:00 +14°C° 0 mm 2 mps 753 mmHg 42%
    02:00 +14°C° 0 mm 2 mps 753 mmHg 43%
    03:00 +13°C° 0 mm 2 mps 753 mmHg 44%
    04:00 +13°C° 0 mm 2 mps 753 mmHg 44%
    05:00 +13°C° 0 mm 2 mps 752 mmHg 45%
    06:00 +14°C° 0 mm 2 mps 753 mmHg 42%
    07:00 +14°C° 0 mm 2 mps 753 mmHg 39%
    08:00 +15°C° 0 mm 2 mps 754 mmHg 36%
    09:00 +18°C° 0 mm 1 mps 754 mmHg 31%
    10:00 +20°C° 0 mm 1 mps 753 mmHg 27%
    11:00 +21°C° 0 mm 1 mps 753 mmHg 22%
    12:00 +22°C° 0 mm 1 mps 752 mmHg 20%
    13:00 +23°C° 0 mm 1 mps 752 mmHg 19%
    14:00 +24°C° 0 mm 1 mps 751 mmHg 17%
    15:00 +23°C° 0 mm 1 mps 751 mmHg 17%
    16:00 +22°C° 0 mm 1 mps 751 mmHg 17%
    17:00 +21°C° 0 mm 1 mps 751 mmHg 17%
    18:00 +21°C° 0 mm 1 mps 751 mmHg 18%
    19:00 +20°C° 0 mm 1 mps 751 mmHg 18%
    20:00 +19°C° 0 mm 1 mps 752 mmHg 18%
    21:00 +19°C° 0 mm 1 mps 752 mmHg 19%
    22:00 +19°C° 0 mm 1 mps 752 mmHg 19%
    23:00 +19°C° 0 mm 1 mps 752 mmHg 20%

    21 January, Monday

    Time Temperature Precipitation Wind Pressure Humidity
    00:00 +18°C° 0 mm 1 mps 752 mmHg 21%
    01:00 +18°C° 0 mm 1 mps 752 mmHg 22%
    02:00 +16°C° 0 mm 1 mps 751 mmHg 23%
    03:00 +16°C° 0 mm 1 mps 751 mmHg 23%
    04:00 +16°C° 0 mm 1 mps 751 mmHg 24%
    05:00 +16°C° 0 mm 1 mps 750 mmHg 24%
    06:00 +18°C° 0 mm 1 mps 751 mmHg 23%
    07:00 +19°C° 0 mm 1 mps 751 mmHg 21%
    08:00 +20°C° 0 mm 1 mps 751 mmHg 20%
    09:00 +21°C° 0 mm 1 mps 751 mmHg 19%
    10:00 +22°C° 0 mm 1 mps 751 mmHg 17%
    11:00 +24°C° 0 mm 1 mps 751 mmHg 16%
    12:00 +25°C° 0 mm 1 mps 751 mmHg 16%
    13:00 +25°C° 0 mm 2 mps 750 mmHg 15%
    14:00 +26°C° 0 mm 3 mps 750 mmHg 14%
    15:00 +25°C° 0 mm 3 mps 750 mmHg 16%
    16:00 +24°C° 0 mm 3 mps 750 mmHg 17%
    17:00 +22°C° 0 mm 3 mps 750 mmHg 19%
    18:00 +21°C° 0 mm 2 mps 751 mmHg 20%
    19:00 +20°C° 0 mm 2 mps 751 mmHg 22%
    20:00 +19°C° 0 mm 2 mps 752 mmHg 24%
    21:00 +18°C° 0 mm 2 mps 752 mmHg 25%
    22:00 +17°C° 0 mm 2 mps 752 mmHg 26%
    23:00 +18°C° 0 mm 1 mps 752 mmHg 27%

    22 January, Tuesday

    Time Temperature Precipitation Wind Pressure Humidity
    00:00 +16°C° 0 mm 1 mps 752 mmHg 29%
    01:00 +16°C° 0 mm 1 mps 752 mmHg 30%
    02:00 +15°C° 0 mm 1 mps 751 mmHg 31%
    03:00 +15°C° 0 mm 1 mps 751 mmHg 32%
    04:00 +15°C° 0 mm 1 mps 751 mmHg 33%
    05:00 +14°C° 0 mm 1 mps 751 mmHg 34%
    06:00 +15°C° 0 mm 1 mps 751 mmHg 33%
    07:00 +16°C° 0 mm 1 mps 752 mmHg 31%
    08:00 +18°C° 0 mm 1 mps 752 mmHg 30%
    09:00 +20°C° 0 mm 1 mps 752 mmHg 27%
    10:00 +21°C° 0 mm 1 mps 751 mmHg 25%
    11:00 +22°C° 0 mm 1 mps 751 mmHg 23%
    12:00 +23°C° 0 mm 1 mps 751 mmHg 22%
    13:00 +24°C° 0 mm 2 mps 750 mmHg 22%
    14:00 +24°C° 0 mm 2 mps 749 mmHg 21%
    15:00 +23°C° 0 mm 2 mps 750 mmHg 22%
    16:00 +23°C° 0 mm 2 mps 750 mmHg 23%
    17:00 +21°C° 0 mm 2 mps 750 mmHg 24%
    18:00 +20°C° 0 mm 2 mps 750 mmHg 26%
    19:00 +19°C° 0 mm 2 mps 750 mmHg 27%
    20:00 +18°C° 0 mm 2 mps 750 mmHg 29%
    21:00 +18°C° 0 mm 2 mps 750 mmHg 29%
    22:00 +18°C° 0 mm 1 mps 750 mmHg 30%
    23:00 +18°C° 0 mm 1 mps 750 mmHg 31%

    23 January, Wednesday

    Time Temperature Precipitation Wind Pressure Humidity
    00:00 +16°C° 0 mm 1 mps 750 mmHg 31%
    01:00 +16°C° 0 mm 1 mps 750 mmHg 31%
    02:00 +15°C° 0 mm 1 mps 750 mmHg 32%
    03:00 +15°C° 0 mm 1 mps 750 mmHg 32%
    04:00 +15°C° 0 mm 2 mps 750 mmHg 32%
    05:00 +14°C° 0 mm 2 mps 750 mmHg 33%
    06:00 +15°C° 0 mm 2 mps 750 mmHg 31%
    07:00 +16°C° 0 mm 2 mps 750 mmHg 29%
    08:00 +17°C° 0 mm 2 mps 751 mmHg 28%
    09:00 +19°C° 0 mm 1 mps 751 mmHg 26%
    10:00 +21°C° 0 mm 1 mps 750 mmHg 24%
    11:00 +22°C° 0 mm 1 mps 750 mmHg 22%
    12:00 +23°C° 0 mm 1 mps 750 mmHg 21%
    13:00 +23°C° 0 mm 1 mps 749 mmHg 20%
    14:00 +24°C° 0 mm 1 mps 748 mmHg 19%
    15:00 +23°C° 0 mm 1 mps 748 mmHg 20%
    16:00 +23°C° 0 mm 1 mps 748 mmHg 20%
    17:00 +21°C° 0 mm 2 mps 749 mmHg 20%
    18:00 +20°C° 0 mm 2 mps 749 mmHg 21%
    19:00 +19°C° 0 mm 2 mps 749 mmHg 21%
    20:00 +18°C° 0 mm 2 mps 749 mmHg 22%
    21:00 +18°C° 0 mm 2 mps 749 mmHg 22%
    22:00 +18°C° 0 mm 2 mps 749 mmHg 22%
    23:00 +17°C° 0 mm 2 mps 749 mmHg 22%
    Show more